Time,TemperatureF,DewpointF,PressureIn,WindDirection,WindDirectionDegrees,WindSpeedMPH,WindSpeedGustMPH,Humidity,HourlyPrecipIn,Conditions,Clouds,dailyrainin,SolarRadiationWatts/m^2,SoftwareType,DateUTC
2013-12-04 00:21:00,38.0,19.0,29.89,NW,313,8.0,12.0,46,-99.99,,,-99.99,0.000000,,2013-12-04 08:21:00,
2013-12-04 00:32:00,38.0,19.0,29.89,NW,313,8.0,12.0,46,-99.99,,,-99.99,0.000000,,2013-12-04 08:32:00,
2013-12-04 00:40:00,38.0,15.0,29.89,NW,319,8.0,15.0,37,-99.99,,,-99.99,0.000000,,2013-12-04 08:40:00,
2013-12-04 01:22:00,38.0,15.0,29.89,NW,319,8.0,15.0,37,-99.99,,,-99.99,0.000000,,2013-12-04 09:22:00,
2013-12-04 01:33:00,38.0,15.0,29.89,NW,319,8.0,15.0,37,-99.99,,,-99.99,0.000000,,2013-12-04 09:33:00,
2013-12-04 01:40:00,39.0,11.0,29.90,NNW,332,8.0,21.0,32,-99.99,,,-99.99,0.000000,,2013-12-04 09:40:00,
2013-12-04 02:23:00,39.0,11.0,29.90,NNW,332,8.0,21.0,32,-99.99,,,-99.99,0.000000,,2013-12-04 10:23:00,
2013-12-04 02:33:00,39.0,11.0,29.90,NNW,332,8.0,21.0,32,-99.99,,,-99.99,0.000000,,2013-12-04 10:33:00,
2013-12-04 02:40:00,38.0,13.0,29.90,NNW,327,9.0,15.0,35,-99.99,,,-99.99,0.000000,,2013-12-04 10:40:00,
2013-12-04 03:22:00,38.0,13.0,29.90,NNW,327,9.0,15.0,35,-99.99,,,-99.99,0.000000,,2013-12-04 11:22:00,
2013-12-04 03:33:00,38.0,13.0,29.90,NNW,327,9.0,15.0,35,-99.99,,,-99.99,0.000000,,2013-12-04 11:33:00,
2013-12-04 03:40:00,39.0,13.0,29.90,NNW,332,11.0,19.0,34,-99.99,,,-99.99,0.000000,,2013-12-04 11:40:00,
2013-12-04 04:22:00,39.0,13.0,29.90,NNW,332,11.0,19.0,34,-99.99,,,-99.99,0.000000,,2013-12-04 12:22:00,
2013-12-04 04:32:00,39.0,13.0,29.90,NNW,332,11.0,19.0,34,-99.99,,,-99.99,0.000000,,2013-12-04 12:32:00,
2013-12-04 04:40:00,38.0,13.0,29.89,NW,311,6.0,20.0,35,-99.99,,,-99.99,0.000000,,2013-12-04 12:40:00,
2013-12-04 05:22:00,38.0,13.0,29.89,NW,311,6.0,20.0,35,-99.99,,,-99.99,0.000000,,2013-12-04 13:22:00,
2013-12-04 05:32:00,38.0,13.0,29.89,NW,311,6.0,20.0,35,-99.99,,,-99.99,0.000000,,2013-12-04 13:32:00,
2013-12-04 05:40:00,38.0,11.0,29.91,NNW,337,5.0,11.0,32,-99.99,,,-99.99,0.000000,,2013-12-04 13:40:00,
2013-12-04 06:21:00,38.0,11.0,29.91,NNW,337,5.0,11.0,32,-99.99,,,-99.99,0.000000,,2013-12-04 14:21:00,
2013-12-04 06:32:00,38.0,11.0,29.91,NNW,337,5.0,11.0,32,-99.99,,,-99.99,0.000000,,2013-12-04 14:32:00,
2013-12-04 06:40:00,37.0,10.0,29.93,East,100,4.0,6.0,32,-99.99,,,-99.99,0.000000,,2013-12-04 14:40:00,
2013-12-04 07:22:00,37.0,10.0,29.93,East,100,4.0,6.0,32,-99.99,,,-99.99,0.000000,,2013-12-04 15:22:00,
2013-12-04 07:33:00,37.0,10.0,29.93,East,100,4.0,6.0,32,-99.99,,,-99.99,0.000000,,2013-12-04 15:33:00,
2013-12-04 07:40:00,36.0,9.0,29.95,ESE,114,7.0,12.0,31,-99.99,,,-99.99,72.000000,,2013-12-04 15:40:00,
2013-12-04 08:23:00,36.0,9.0,29.95,ESE,114,7.0,12.0,31,-99.99,,,-99.99,72.000000,,2013-12-04 16:23:00,
2013-12-04 08:33:00,36.0,9.0,29.95,ESE,114,7.0,12.0,31,-99.99,,,-99.99,72.000000,,2013-12-04 16:33:00,
2013-12-04 08:40:00,41.0,9.0,29.99,NW,309,3.0,6.0,27,-99.99,,,-99.99,295.000000,,2013-12-04 16:40:00,
2013-12-04 09:22:00,41.0,9.0,29.99,NW,309,3.0,6.0,27,-99.99,,,-99.99,295.000000,,2013-12-04 17:22:00,
2013-12-04 09:33:00,41.0,9.0,29.99,NW,309,3.0,6.0,27,-99.99,,,-99.99,295.000000,,2013-12-04 17:33:00,
2013-12-04 09:40:00,40.0,19.0,30.01,West,259,4.0,5.0,42,-99.99,,,-99.99,455.000000,,2013-12-04 17:40:00,
2013-12-04 10:22:00,40.0,19.0,30.01,West,259,4.0,5.0,42,-99.99,,,-99.99,455.000000,,2013-12-04 18:22:00,
2013-12-04 10:33:00,40.0,19.0,30.01,West,259,4.0,5.0,42,-99.99,,,-99.99,455.000000,,2013-12-04 18:33:00,
2013-12-04 10:40:00,41.0,23.0,30.02,West,260,5.0,8.0,49,-99.99,,,-99.99,557.000000,,2013-12-04 18:40:00,
2013-12-04 11:21:00,41.0,23.0,30.02,West,260,5.0,8.0,49,-99.99,,,-99.99,557.000000,,2013-12-04 19:21:00,
2013-12-04 11:32:00,41.0,23.0,30.02,West,260,5.0,8.0,49,-99.99,,,-99.99,557.000000,,2013-12-04 19:32:00,
2013-12-04 11:40:00,41.0,18.0,30.01,WSW,256,5.0,8.0,38,-99.99,,,-99.99,607.000000,,2013-12-04 19:40:00,
2013-12-04 12:22:00,41.0,18.0,30.01,WSW,256,5.0,8.0,38,-99.99,,,-99.99,607.000000,,2013-12-04 20:22:00,
2013-12-04 12:32:00,41.0,18.0,30.01,WSW,256,5.0,8.0,38,-99.99,,,-99.99,607.000000,,2013-12-04 20:32:00,
2013-12-04 12:40:00,42.0,20.0,29.99,West,274,11.0,17.0,41,-99.99,,,-99.99,588.000000,,2013-12-04 20:40:00,
2013-12-04 13:22:00,42.0,20.0,29.99,West,274,11.0,17.0,41,-99.99,,,-99.99,588.000000,,2013-12-04 21:22:00,
2013-12-04 13:33:00,42.0,20.0,29.99,West,274,11.0,17.0,41,-99.99,,,-99.99,588.000000,,2013-12-04 21:33:00,
2013-12-04 13:40:00,41.0,18.0,29.97,West,272,14.0,21.0,40,-99.99,,,-99.99,507.000000,,2013-12-04 21:40:00,
2013-12-04 14:40:00,40.0,23.0,29.95,West,273,14.0,19.0,49,-99.99,,,-99.99,370.000000,,2013-12-04 22:40:00,
2013-12-04 15:22:00,40.0,23.0,29.95,West,273,14.0,19.0,49,-99.99,,,-99.99,370.000000,,2013-12-04 23:22:00,
2013-12-04 15:33:00,40.0,23.0,29.95,West,273,14.0,19.0,49,-99.99,,,-99.99,370.000000,,2013-12-04 23:33:00,
2013-12-04 15:40:00,40.0,24.0,29.95,West,274,12.0,17.0,51,-99.99,,,-99.99,197.000000,,2013-12-04 23:40:00,
2013-12-04 16:40:00,38.0,27.0,29.95,West,275,7.0,10.0,63,-99.99,,,-99.99,45.000000,,2013-12-05 00:40:00,
2013-12-04 17:40:00,36.0,26.0,29.95,ESE,107,3.0,4.0,67,-99.99,,,-99.99,0.000000,,2013-12-05 01:40:00,
2013-12-04 18:22:00,36.0,26.0,29.95,ESE,107,3.0,4.0,67,-99.99,,,-99.99,0.000000,,2013-12-05 02:22:00,
2013-12-04 18:32:00,36.0,26.0,29.95,ESE,107,3.0,4.0,67,-99.99,,,-99.99,0.000000,,2013-12-05 02:32:00,
2013-12-04 18:40:00,37.0,21.0,29.96,ESE,115,5.0,9.0,52,-99.99,,,-99.99,0.000000,,2013-12-05 02:40:00,
2013-12-04 19:40:00,38.0,18.0,29.97,NE,53,2.0,4.0,44,-99.99,,,-99.99,0.000000,,2013-12-05 03:40:00,
2013-12-04 20:23:00,38.0,18.0,29.97,NE,53,2.0,4.0,44,-99.99,,,-99.99,0.000000,,2013-12-05 04:23:00,
2013-12-04 20:34:00,38.0,18.0,29.97,NE,53,2.0,4.0,44,-99.99,,,-99.99,0.000000,,2013-12-05 04:34:00,
2013-12-04 20:40:00,38.0,17.0,29.98,SE,143,2.0,3.0,41,-99.99,,,-99.99,0.000000,,2013-12-05 04:40:00,
2013-12-04 21:40:00,38.0,15.0,29.99,SE,131,4.0,4.0,39,-99.99,,,-99.99,0.000000,,2013-12-05 05:40:00,
2013-12-04 22:40:00,37.0,18.0,30.00,ESE,104,2.0,3.0,45,-99.99,,,-99.99,0.000000,,2013-12-05 06:40:00,
2013-12-04 23:40:00,36.0,14.0,30.00,East,82,3.0,4.0,40,-99.99,,,-99.99,0.000000,,2013-12-05 07:40:00,